Location: Ripley
(48.3812°N, 115.4473°W)
Time: 17:49:19
(UTC+00:00)

O/OREOS (USA 219) - Pass Details

Date: 02 July 2022
Orbit: 621 x 646 km, 72.0° (Epoch: 22 May)

Event Time Altitude Azimuth Distance (km) Brightness Sun altitude
Rises 07:33:54 0° 335° (NNW) 2,965 ? -18.5°
Reaches altitude 10° 07:36:11 10° 337° (NNW) 2,053 ? -18.6°
Maximum altitude 07:40:48 74° 62° (ENE) 677 ? -18.6°
Enters shadow 07:42:53 32° 141° (SE) 1,101 ? -18.6°
